Notices

What's New in latest Release from April 7th, 2021:

- Updated Glossary, including Speed of Maximum Gust, and Total Hourly Precipitation

- Updated national and regional climate services offices contacts and prices information

- Addition of station inventory lists for 1981-2010, 1971-2000, and 1961-1990 Normals.

If you haven't already, please take our survey and provide feedback about our website: https://eccc.sondage-survey.ca/f/LanguageSelection.aspx?s=442ca660-fcf1-47c0-95a9-59707d6fd709

Hourly Data Report for November 17, 2019

SATURNA ISLAND CS
BRITISH COLUMBIA
Current Station Operator: ECCC - MSC

48°47'02.067" N
123°02'41.082" W
24.40 m
1017101
71473
WEZ

Download Data

Hourly Data (November 2019)
Hourly Data Report for November 17, 2019
TIME
LST
Temp Definition
°C
Dew Point Definition
°C
Rel Hum Definition
%
Precip. Amount Definition
mm

Wind Dir Definition
10's deg

Wind Spd Definition
km/h
Visibility Definition
km
Stn Press Definition
kPa
Hmdx Definition


Wind Chill Definition


Weather Definition


00:00 10.7 9.0 89 0.4 17 28   101.51     LegendNANA
01:00 10.7 9.3 91 0.6 18 39   101.40     LegendNANA
02:00 10.8 9.2 90 0.6 18 37   101.37     LegendNANA
03:00 11.1 9.1 88 0.2 18 46   101.26     LegendNANA
04:00 11.1 9.0 87 0.0 18 44   101.21     LegendNANA
05:00 10.7 9.2 90 0.6 18 30   101.32     LegendNANA
06:00 10.6 9.4 93 4.4 17 36   101.24     LegendNANA
07:00 10.7 9.6 93 1.4 17 43   101.15     LegendNANA
08:00 11.0 9.7 92 0.0 18 41   101.16     LegendNANA
09:00 11.1 9.8 92 0.0 18 32   101.25     LegendNANA
10:00 11.2 10.0 92 0.2 19 47   101.21     LegendNANA
11:00 11.4 10.2 93 0.0 19 43   101.29     LegendNANA
12:00 13.2 10.0 81 0.0 20 41   101.32     LegendNANA
13:00 13.5 10.0 79 0.0 21 40   101.37     LegendNANA
14:00 12.7 9.2 79 0.0 22 18   101.42     LegendNANA
15:00 11.1 9.1 87 0.0 21 26   101.49     LegendNANA
16:00 11.1 9.0 87 0.0 23 10   101.62     LegendNANA
17:00 10.5 8.9 90 0.0 23 7   101.68     LegendNANA
18:00 10.2 9.2 94 0.0 23 5   101.78     LegendNANA
19:00 10.3 9.6 96 0.0 20 4   101.84     LegendNANA
20:00 10.1 9.5 96 0.0 22 7   101.83     LegendNANA
21:00 10.4 9.6 95 0.0 24 10   101.88     LegendNANA
22:00 9.9 9.0 94 0.0 24 8   101.85     LegendNANA
23:00 9.9 9.1 95 0.0 21 9   101.85     LegendNANA

Notes on Data Quality.

Legend

  • E = Estimated
  • M = Missing
  • NA = Not Available*
  • [empty] = Indicates an unobserved value
Date modified: